Terminal Aerodrome Forecast
Issued by NWS

Home | Current Version | Previous Version | Text Only | Print | Product List | Glossary On
Versions: 1 2 3 4 5 6 7 8 9 10 11 12 13 14 15 16 17
000
FTUS45 KVEF 061351 AAA
TAFHND
TAF AMD
KHND 061351Z 0614/0712 19012KT P6SM VCTS SCT090CB BKN150
      TEMPO 0614/0616 VRB15G25KT -TSRA BKN080CB
     FM061900 18012G20KT P6SM VCTS BKN070CB BKN100
     FM070400 17009KT P6SM BKN080 BKN120=

USA.gov is the U.S. government's official web portal to all federal, state and local government web resources and services.